Time,TemperatureF,DewpointF,PressureIn,WindDirection,WindDirectionDegrees,WindSpeedMPH,WindSpeedGustMPH,Humidity,HourlyPrecipIn,Conditions,Clouds,dailyrainin,SoftwareType,DateUTC
2013-03-18 00:08:00,42.2,37.0,30.07,NE,34,2.0,-999.0,83,-99.99,,,0.00,weatherlink.com 1.10,2013-03-18 07:08:00,
2013-03-18 00:24:00,41.3,37.0,30.06,NNE,24,3.0,-999.0,83,-99.99,,,0.00,weatherlink.com 1.10,2013-03-18 07:24:00,
2013-03-18 00:38:00,41.0,37.0,30.06,NNE,14,3.0,-999.0,86,-99.99,,,0.00,weatherlink.com 1.10,2013-03-18 07:38:00,
2013-03-18 00:53:00,41.2,37.0,30.06,NNE,32,3.0,-999.0,86,-99.99,,,0.00,weatherlink.com 1.10,2013-03-18 07:53:00,
2013-03-18 01:09:00,41.5,38.0,30.06,NNE,22,2.0,-999.0,87,-99.99,,,0.00,weatherlink.com 1.10,2013-03-18 08:09:00,
2013-03-18 01:23:00,41.8,38.0,30.06,NNE,28,3.0,-999.0,87,-99.99,,,0.00,weatherlink.com 1.10,2013-03-18 08:23:00,
2013-03-18 01:38:00,41.9,38.0,30.06,NNE,25,4.0,-999.0,87,-99.99,,,0.00,weatherlink.com 1.10,2013-03-18 08:38:00,
2013-03-18 01:53:00,41.3,37.0,30.06,NE,42,3.0,-999.0,85,-99.99,,,0.00,weatherlink.com 1.10,2013-03-18 08:53:00,
2013-03-18 02:08:00,40.2,36.0,30.06,NE,48,4.0,-999.0,86,-99.99,,,0.00,weatherlink.com 1.10,2013-03-18 09:08:00,
2013-03-18 02:24:00,40.2,37.0,30.06,NE,37,4.0,-999.0,89,-99.99,,,0.00,weatherlink.com 1.10,2013-03-18 09:24:00,
2013-03-18 02:39:00,40.7,38.0,30.06,NNE,16,3.0,-999.0,89,-99.99,,,0.00,weatherlink.com 1.10,2013-03-18 09:39:00,
2013-03-18 02:53:00,41.0,38.0,30.05,NNE,20,3.0,-999.0,89,-99.99,,,0.00,weatherlink.com 1.10,2013-03-18 09:53:00,
2013-03-18 03:08:00,40.8,38.0,30.05,North,10,2.0,-999.0,88,-99.99,,,0.00,weatherlink.com 1.10,2013-03-18 10:08:00,
2013-03-18 03:24:00,41.5,38.0,30.05,NNE,19,1.0,-999.0,88,-99.99,,,0.00,weatherlink.com 1.10,2013-03-18 10:24:00,
2013-03-18 03:38:00,41.8,38.0,30.05,NE,38,3.0,-999.0,87,-99.99,,,0.00,weatherlink.com 1.10,2013-03-18 10:38:00,
2013-03-18 03:53:00,41.8,38.0,30.05,NNE,19,3.0,-999.0,86,-99.99,,,0.00,weatherlink.com 1.10,2013-03-18 10:53:00,
2013-03-18 04:08:00,41.8,38.0,30.04,NNE,23,6.0,-999.0,86,-99.99,,,0.00,weatherlink.com 1.10,2013-03-18 11:08:00,
2013-03-18 04:23:00,41.9,38.0,30.04,NNW,348,2.0,-999.0,86,-99.99,,,0.00,weatherlink.com 1.10,2013-03-18 11:23:00,
2013-03-18 04:38:00,42.4,38.0,30.04,NE,34,4.0,-999.0,84,-99.99,,,0.00,weatherlink.com 1.10,2013-03-18 11:38:00,
2013-03-18 04:54:00,42.7,38.0,30.05,NNE,30,3.0,-999.0,84,-99.99,,,0.00,weatherlink.com 1.10,2013-03-18 11:54:00,
2013-03-18 05:08:00,42.5,38.0,30.04,North,355,4.0,-999.0,84,-99.99,,,0.00,weatherlink.com 1.10,2013-03-18 12:08:00,
2013-03-18 05:24:00,42.4,38.0,30.03,NNW,346,6.0,-999.0,85,-99.99,,,0.00,weatherlink.com 1.10,2013-03-18 12:24:00,
2013-03-18 05:38:00,42.2,38.0,30.04,North,355,5.0,-999.0,84,-99.99,,,0.00,weatherlink.com 1.10,2013-03-18 12:38:00,
2013-03-18 05:53:00,42.0,38.0,30.04,NE,46,4.0,-999.0,84,-99.99,,,0.00,weatherlink.com 1.10,2013-03-18 12:53:00,
2013-03-18 06:09:00,41.5,37.0,30.04,NE,34,4.0,-999.0,83,-99.99,,,0.00,weatherlink.com 1.10,2013-03-18 13:09:00,
2013-03-18 06:24:00,41.4,37.0,30.04,NNW,346,4.0,-999.0,83,-99.99,,,0.00,weatherlink.com 1.10,2013-03-18 13:24:00,
2013-03-18 06:38:00,42.5,37.0,30.04,NNE,28,5.0,-999.0,80,-99.99,,,0.00,weatherlink.com 1.10,2013-03-18 13:38:00,
2013-03-18 06:53:00,43.1,37.0,30.04,North,5,2.0,-999.0,78,-99.99,,,0.00,weatherlink.com 1.10,2013-03-18 13:53:00,
2013-03-18 07:09:00,42.8,36.0,30.04,NNE,32,4.0,-999.0,78,-99.99,,,0.00,weatherlink.com 1.10,2013-03-18 14:09:00,
2013-03-18 07:24:00,43.4,36.0,30.05,NNW,346,6.0,-999.0,74,-99.99,,,0.00,weatherlink.com 1.10,2013-03-18 14:24:00,
2013-03-18 07:48:00,44.5,36.0,30.06,NNW,341,7.0,-999.0,73,-99.99,,,0.00,weatherlink.com 1.10,2013-03-18 14:48:00,
2013-03-18 07:54:00,44.7,37.0,30.06,North,360,6.0,-999.0,73,-99.99,,,0.00,weatherlink.com 1.10,2013-03-18 14:54:00,
2013-03-18 08:24:00,45.7,37.0,30.07,NNW,339,6.0,-999.0,73,-99.99,,,0.00,weatherlink.com 1.10,2013-03-18 15:24:00,
2013-03-18 08:39:00,46.3,39.0,30.08,NE,34,6.0,-999.0,75,-99.99,,,0.00,weatherlink.com 1.10,2013-03-18 15:39:00,
2013-03-18 08:53:00,46.9,40.0,30.07,North,360,10.0,-999.0,77,-99.99,,,0.00,weatherlink.com 1.10,2013-03-18 15:53:00,
2013-03-18 09:08:00,47.3,40.0,30.07,NNW,330,5.0,-999.0,76,-99.99,,,0.00,weatherlink.com 1.10,2013-03-18 16:08:00,
2013-03-18 09:24:00,47.7,40.0,30.07,NNE,28,4.0,-999.0,75,-99.99,,,0.00,weatherlink.com 1.10,2013-03-18 16:24:00,
2013-03-18 09:39:00,48.0,40.0,30.07,NNE,16,5.0,-999.0,74,-99.99,,,0.00,weatherlink.com 1.10,2013-03-18 16:39:00,
2013-03-18 09:54:00,49.0,41.0,30.07,NNE,30,4.0,-999.0,74,-99.99,,,0.00,weatherlink.com 1.10,2013-03-18 16:54:00,
2013-03-18 10:08:00,49.5,41.0,30.07,NW,325,9.0,-999.0,72,-99.99,,,0.00,weatherlink.com 1.10,2013-03-18 17:08:00,
2013-03-18 10:23:00,49.8,41.0,30.07,NNE,30,7.0,-999.0,71,-99.99,,,0.00,weatherlink.com 1.10,2013-03-18 17:23:00,
2013-03-18 10:39:00,49.0,41.0,30.08,NNW,336,7.0,-999.0,73,-99.99,,,0.00,weatherlink.com 1.10,2013-03-18 17:39:00,
2013-03-18 10:54:00,49.5,42.0,30.09,NW,324,11.0,-999.0,75,-99.99,,,0.00,weatherlink.com 1.10,2013-03-18 17:54:00,
2013-03-18 11:09:00,50.0,43.0,30.07,NNE,14,7.0,-999.0,76,-99.99,,,0.00,weatherlink.com 1.10,2013-03-18 18:09:00,
2013-03-18 11:23:00,50.5,43.0,30.07,NE,48,5.0,-999.0,74,-99.99,,,0.00,weatherlink.com 1.10,2013-03-18 18:23:00,
2013-03-18 11:39:00,50.6,44.0,30.07,NE,40,5.0,-999.0,78,-99.99,,,0.00,weatherlink.com 1.10,2013-03-18 18:39:00,
2013-03-18 11:53:00,50.4,44.0,30.08,NW,305,7.0,-999.0,78,-99.99,,,0.00,weatherlink.com 1.10,2013-03-18 18:53:00,
2013-03-18 12:08:00,51.0,45.0,30.07,NNW,331,10.0,-999.0,81,-99.99,,,0.00,weatherlink.com 1.10,2013-03-18 19:08:00,
2013-03-18 12:24:00,51.5,45.0,30.07,NNW,339,11.0,-999.0,77,-99.99,,,0.00,weatherlink.com 1.10,2013-03-18 19:24:00,
2013-03-18 12:38:00,50.5,45.0,30.06,NNW,334,10.0,-999.0,82,-99.99,,,0.00,weatherlink.com 1.10,2013-03-18 19:38:00,
2013-03-18 12:53:00,51.4,45.0,30.07,NW,316,10.0,-999.0,79,-99.99,,,0.00,weatherlink.com 1.10,2013-03-18 19:53:00,
2013-03-18 13:08:00,52.5,47.0,30.06,North,360,6.0,-999.0,80,-99.99,,,0.00,weatherlink.com 1.10,2013-03-18 20:08:00,
2013-03-18 13:24:00,52.8,46.0,30.06,NE,40,4.0,-999.0,79,-99.99,,,0.00,weatherlink.com 1.10,2013-03-18 20:24:00,
2013-03-18 13:39:00,51.9,46.0,30.05,NNW,343,9.0,-999.0,79,-99.99,,,0.00,weatherlink.com 1.10,2013-03-18 20:39:00,
2013-03-18 13:53:00,52.3,47.0,30.05,NW,319,11.0,-999.0,81,-99.99,,,0.00,weatherlink.com 1.10,2013-03-18 20:53:00,
2013-03-18 14:08:00,51.8,46.0,30.05,NW,311,11.0,-999.0,80,-99.99,,,0.00,weatherlink.com 1.10,2013-03-18 21:08:00,
2013-03-18 14:23:00,51.6,46.0,30.04,NNW,340,11.0,-999.0,80,-99.99,,,0.00,weatherlink.com 1.10,2013-03-18 21:23:00,
2013-03-18 14:38:00,51.4,45.0,30.04,NNW,343,9.0,-999.0,80,-99.99,,,0.00,weatherlink.com 1.10,2013-03-18 21:38:00,
2013-03-18 14:53:00,51.5,47.0,30.04,North,5,12.0,-999.0,83,-99.99,,,0.00,weatherlink.com 1.10,2013-03-18 21:53:00,
2013-03-18 15:08:00,50.7,46.0,30.03,NNW,335,8.0,-999.0,83,-99.99,,,0.00,weatherlink.com 1.10,2013-03-18 22:08:00,
2013-03-18 15:24:00,50.7,45.0,30.03,NW,315,8.0,-999.0,82,-99.99,,,0.00,weatherlink.com 1.10,2013-03-18 22:24:00,
2013-03-18 15:39:00,49.9,46.0,30.03,North,11,5.0,-999.0,85,-99.99,,,0.00,weatherlink.com 1.10,2013-03-18 22:39:00,
2013-03-18 15:53:00,50.1,46.0,30.03,NW,323,11.0,-999.0,84,-99.99,,,0.00,weatherlink.com 1.10,2013-03-18 22:53:00,
2013-03-18 16:09:00,50.0,46.0,30.03,NNW,336,11.0,-999.0,86,-99.99,,,0.00,weatherlink.com 1.10,2013-03-18 23:09:00,
2013-03-18 16:24:00,49.4,45.0,30.03,NW,312,11.0,-999.0,86,-99.99,,,0.00,weatherlink.com 1.10,2013-03-18 23:24:00,
2013-03-18 16:39:00,49.5,46.0,30.02,NNE,13,9.0,-999.0,86,-99.99,,,0.00,weatherlink.com 1.10,2013-03-18 23:39:00,
2013-03-18 16:54:00,49.9,46.0,30.02,NNW,339,13.0,-999.0,85,-99.99,,,0.00,weatherlink.com 1.10,2013-03-18 23:54:00,
2013-03-18 17:09:00,50.3,46.0,30.02,NNE,25,6.0,-999.0,84,-99.99,,,0.00,weatherlink.com 1.10,2013-03-19 00:09:00,
2013-03-18 17:23:00,50.9,46.0,30.01,NW,318,8.0,-999.0,84,-99.99,,,0.00,weatherlink.com 1.10,2013-03-19 00:23:00,
2013-03-18 17:38:00,50.3,46.0,30.01,NNW,327,12.0,-999.0,84,-99.99,,,0.00,weatherlink.com 1.10,2013-03-19 00:38:00,
2013-03-18 17:54:00,49.5,45.0,30.01,NNW,329,7.0,-999.0,84,-99.99,,,0.00,weatherlink.com 1.10,2013-03-19 00:54:00,
2013-03-18 18:08:00,49.0,45.0,30.02,NNW,339,9.0,-999.0,85,-99.99,,,0.00,weatherlink.com 1.10,2013-03-19 01:08:00,
2013-03-18 18:23:00,48.6,45.0,30.02,NW,324,8.0,-999.0,86,-99.99,,,0.00,weatherlink.com 1.10,2013-03-19 01:23:00,
2013-03-18 18:39:00,48.5,45.0,30.02,NNW,340,8.0,-999.0,87,-99.99,,,0.00,weatherlink.com 1.10,2013-03-19 01:39:00,
2013-03-18 18:53:00,48.0,44.0,30.02,NNW,339,7.0,-999.0,87,-99.99,,,0.00,weatherlink.com 1.10,2013-03-19 01:53:00,
2013-03-18 19:08:00,47.4,44.0,30.05,NW,307,6.0,-999.0,88,-99.99,,,0.00,weatherlink.com 1.10,2013-03-19 02:08:00,
2013-03-18 19:23:00,47.2,44.0,30.04,NNE,24,1.0,-999.0,89,-99.99,,,0.00,weatherlink.com 1.10,2013-03-19 02:23:00,
2013-03-18 19:38:00,46.8,44.0,30.04,North,351,7.0,-999.0,89,-99.99,,,0.00,weatherlink.com 1.10,2013-03-19 02:38:00,
2013-03-18 19:53:00,46.8,44.0,30.06,NW,310,7.0,-999.0,90,-99.99,,,0.00,weatherlink.com 1.10,2013-03-19 02:53:00,
2013-03-18 20:08:00,46.8,44.0,30.06,NW,321,1.0,-999.0,90,-99.99,,,0.00,weatherlink.com 1.10,2013-03-19 03:08:00,
2013-03-18 20:24:00,46.8,44.0,30.07,NNW,345,7.0,-999.0,90,-99.99,,,0.00,weatherlink.com 1.10,2013-03-19 03:24:00,
2013-03-18 20:38:00,46.8,44.0,30.08,NNE,32,5.0,-999.0,90,-99.99,,,0.00,weatherlink.com 1.10,2013-03-19 03:38:00,
2013-03-18 20:53:00,46.8,44.0,30.09,ENE,68,3.0,-999.0,90,-99.99,,,0.00,weatherlink.com 1.10,2013-03-19 03:53:00,
2013-03-18 21:09:00,46.8,44.0,30.09,North,5,1.0,-999.0,90,-99.99,,,0.00,weatherlink.com 1.10,2013-03-19 04:09:00,
2013-03-18 21:24:00,46.8,44.0,30.10,NNE,16,2.0,-999.0,91,-99.99,,,0.00,weatherlink.com 1.10,2013-03-19 04:24:00,
2013-03-18 21:39:00,46.8,44.0,30.11,North,355,6.0,-999.0,91,-99.99,,,0.00,weatherlink.com 1.10,2013-03-19 04:39:00,
2013-03-18 21:54:00,46.7,44.0,30.11,NNE,23,4.0,-999.0,91,-99.99,,,0.00,weatherlink.com 1.10,2013-03-19 04:54:00,
2013-03-18 22:09:00,46.5,44.0,30.11,NNE,22,4.0,-999.0,91,-99.99,,,0.00,weatherlink.com 1.10,2013-03-19 05:09:00,
2013-03-18 22:24:00,46.3,44.0,30.11,North,360,2.0,-999.0,91,-99.99,,,0.00,weatherlink.com 1.10,2013-03-19 05:24:00,
2013-03-18 22:38:00,46.2,44.0,30.10,NNE,23,3.0,-999.0,91,-99.99,,,0.00,weatherlink.com 1.10,2013-03-19 05:38:00,
2013-03-18 22:53:00,46.1,43.0,30.08,NNW,342,4.0,-999.0,90,-99.99,,,0.00,weatherlink.com 1.10,2013-03-19 05:53:00,
2013-03-18 23:09:00,46.0,43.0,30.07,NNW,331,6.0,-999.0,90,-99.99,,,0.00,weatherlink.com 1.10,2013-03-19 06:09:00,
2013-03-18 23:24:00,45.7,42.0,30.06,North,5,4.0,-999.0,87,-99.99,,,0.00,weatherlink.com 1.10,2013-03-19 06:24:00,
2013-03-18 23:39:00,45.8,39.0,30.05,North,350,2.0,-999.0,78,-99.99,,,0.00,weatherlink.com 1.10,2013-03-19 06:39:00,
2013-03-18 23:54:00,47.0,38.0,30.04,ENE,65,1.0,-999.0,72,-99.99,,,0.00,weatherlink.com 1.10,2013-03-19 06:54:00,